Location: Canet
(43.3261°N, 5.3723°E)
Time: 19:18:48
(UTC+00:00)

CZ-2C R/B - Pass Details

Date: 24 January 2021
Orbit: 785 x 870 km, 98.2° (Epoch: 08 March)

Event Time Altitude Azimuth Distance (km) Brightness Sun altitude
Exits shadow 19:51:53 30° 329° (NNW) 1,494 4.2 -34.8°
Maximum altitude 19:53:36 37° 292° (WNW) 1,310 4.0 -35.1°
Drops below altitude 10° 19:58:42 10° 227° (SW) 2,511 5.5 -36.0°
Sets 20:01:13 0° 219° (SW) 3,445 6.2 -36.5°
